Time,TemperatureF,DewpointF,PressureIn,WindDirection,WindDirectionDegrees,WindSpeedMPH,WindSpeedGustMPH,Humidity,HourlyPrecipIn,Conditions,Clouds,dailyrainin,SolarRadiationWatts/m^2,SoftwareType,DateUTC
2013-01-06 00:01:00,49.7,48.0,30.04,SSW,207,0.9,3.5,94,0.00,RA,,0.00,0.0,WeatherDisplay:10.37,2013-01-06 08:01:00,
2013-01-06 00:06:00,49.7,48.0,30.04,SSW,208,1.9,4.6,94,0.00,RA,,0.00,0.0,WeatherDisplay:10.37,2013-01-06 08:06:00,
2013-01-06 00:11:00,49.7,48.0,30.04,SSW,206,2.1,3.5,94,0.00,,,0.00,0.0,WeatherDisplay:10.37,2013-01-06 08:11:00,
2013-01-06 00:16:00,49.6,47.9,30.04,SSW,207,1.5,2.3,94,0.00,,,0.00,0.0,WeatherDisplay:10.37,2013-01-06 08:16:00,
2013-01-06 00:21:00,49.5,47.6,30.03,ENE,76,6.3,6.9,93,0.01,RA,,0.01,0.0,WeatherDisplay:10.37,2013-01-06 08:21:00,
2013-01-06 00:26:00,49.2,47.3,30.03,SE,140,5.1,6.9,93,0.02,RA,,0.02,0.0,WeatherDisplay:10.37,2013-01-06 08:26:00,
2013-01-06 00:31:00,48.9,47.0,30.03,ENE,70,4.5,9.0,93,0.04,RA,,0.04,0.0,WeatherDisplay:10.37,2013-01-06 08:31:00,
2013-01-06 00:36:00,48.7,47.1,30.03,SE,126,2.7,6.0,94,0.04,RA,,0.04,0.0,WeatherDisplay:10.37,2013-01-06 08:36:00,
2013-01-06 00:41:00,48.3,46.4,30.03,ESE,115,3.3,5.0,93,0.06,RA,,0.06,0.0,WeatherDisplay:10.37,2013-01-06 08:41:00,
2013-01-06 00:46:00,47.8,45.9,30.03,SE,127,6.1,9.2,93,0.06,RA,,0.06,0.0,WeatherDisplay:10.37,2013-01-06 08:46:00,
2013-01-06 00:51:00,47.4,45.5,30.03,SE,129,4.3,6.9,93,0.06,,,0.06,0.0,WeatherDisplay:10.37,2013-01-06 08:51:00,
2013-01-06 00:56:00,47.2,45.6,30.03,ESE,123,5.9,6.9,94,0.06,,,0.06,0.0,WeatherDisplay:10.37,2013-01-06 08:56:00,
2013-01-06 01:01:00,47.0,45.4,30.03,SSE,149,3.6,5.8,94,0.07,RA,,0.07,0.0,WeatherDisplay:10.37,2013-01-06 09:01:00,
2013-01-06 01:06:00,46.7,45.1,30.03,ENE,72,5.6,13.0,94,0.08,RA,,0.08,0.0,WeatherDisplay:10.37,2013-01-06 09:06:00,
2013-01-06 01:11:00,46.3,44.4,30.03,SE,124,5.5,11.5,93,0.09,RA,,0.09,0.0,WeatherDisplay:10.37,2013-01-06 09:11:00,
2013-01-06 01:16:00,46.2,44.3,30.03,ENE,77,8.0,11.5,93,0.09,RA,,0.09,0.0,WeatherDisplay:10.37,2013-01-06 09:16:00,
2013-01-06 01:21:00,46.1,44.2,30.04,ESE,116,5.8,9.2,93,0.08,,,0.09,0.0,WeatherDisplay:10.37,2013-01-06 09:21:00,
2013-01-06 01:26:00,46.0,44.1,30.04,East,83,3.8,9.2,93,0.06,,,0.09,0.0,WeatherDisplay:10.37,2013-01-06 09:26:00,
2013-01-06 01:31:00,46.0,44.1,30.04,ENE,75,5.8,9.2,93,0.05,,,0.09,0.0,WeatherDisplay:10.37,2013-01-06 09:31:00,
2013-01-06 01:36:00,45.9,44.0,30.04,ESE,111,4.9,11.5,93,0.05,,,0.09,0.0,WeatherDisplay:10.37,2013-01-06 09:36:00,
2013-01-06 01:41:00,45.8,43.6,30.04,East,84,7.4,13.8,92,0.03,,,0.09,0.0,WeatherDisplay:10.37,2013-01-06 09:41:00,
2013-01-06 01:46:00,45.8,43.6,30.04,NE,52,7.4,10.4,92,0.03,,,0.09,0.0,WeatherDisplay:10.37,2013-01-06 09:46:00,
2013-01-06 01:51:00,45.8,43.6,30.04,ESE,117,6.4,11.5,92,0.03,,,0.09,0.0,WeatherDisplay:10.37,2013-01-06 09:51:00,
2013-01-06 01:56:00,45.8,43.6,30.04,East,98,4.8,8.1,92,0.03,,,0.09,0.0,WeatherDisplay:10.37,2013-01-06 09:56:00,
2013-01-06 02:01:00,45.8,43.3,30.04,ENE,62,4.3,6.9,91,0.02,,,0.09,0.0,WeatherDisplay:10.37,2013-01-06 10:01:00,
2013-01-06 02:06:00,45.9,43.4,30.04,ENE,75,5.3,10.4,91,0.01,,,0.09,0.0,WeatherDisplay:10.37,2013-01-06 10:06:00,
2013-01-06 02:11:00,45.9,43.4,30.04,ENE,67,9.2,13.8,91,0.00,,,0.09,0.0,WeatherDisplay:10.37,2013-01-06 10:11:00,
2013-01-06 02:16:00,45.8,43.3,30.05,East,81,4.9,9.2,91,0.00,,,0.09,0.0,WeatherDisplay:10.37,2013-01-06 10:16:00,
2013-01-06 02:21:00,45.8,43.3,30.05,East,100,3.5,4.6,91,0.00,,,0.09,0.0,WeatherDisplay:10.37,2013-01-06 10:21:00,
2013-01-06 02:26:00,45.8,43.3,30.05,ENE,59,6.7,11.5,91,0.00,,,0.09,0.0,WeatherDisplay:10.37,2013-01-06 10:26:00,
2013-01-06 02:31:00,45.6,43.1,30.05,NE,54,4.8,9.2,91,0.00,,,0.09,0.0,WeatherDisplay:10.37,2013-01-06 10:31:00,
2013-01-06 02:36:00,45.6,43.1,30.05,NE,54,7.0,11.5,91,0.00,,,0.09,0.0,WeatherDisplay:10.37,2013-01-06 10:36:00,
2013-01-06 02:41:00,45.6,42.8,30.05,East,94,4.1,6.9,90,0.00,,,0.09,0.0,WeatherDisplay:10.37,2013-01-06 10:41:00,
2013-01-06 02:46:00,45.6,42.8,30.05,East,88,6.1,10.4,90,0.00,,,0.09,0.0,WeatherDisplay:10.37,2013-01-06 10:46:00,
2013-01-06 02:51:00,45.6,42.8,30.05,NE,55,4.1,6.9,90,0.00,,,0.09,0.0,WeatherDisplay:10.37,2013-01-06 10:51:00,
2013-01-06 02:56:00,45.7,42.9,30.05,ESE,110,3.5,4.6,90,0.00,,,0.09,0.0,WeatherDisplay:10.37,2013-01-06 10:56:00,
2013-01-06 03:01:00,45.7,42.9,30.05,NE,56,2.3,4.6,90,0.00,,,0.09,0.0,WeatherDisplay:10.37,2013-01-06 11:01:00,
2013-01-06 03:06:00,45.8,43.0,30.06,ENE,63,3.4,6.9,90,0.00,,,0.09,0.0,WeatherDisplay:10.37,2013-01-06 11:06:00,
2013-01-06 03:11:00,45.8,43.0,30.06,East,90,1.8,3.5,90,0.00,,,0.09,0.0,WeatherDisplay:10.37,2013-01-06 11:11:00,
2013-01-06 03:16:00,45.8,43.0,30.07,East,90,2.2,3.5,90,0.00,,,0.09,0.0,WeatherDisplay:10.37,2013-01-06 11:16:00,
2013-01-06 03:21:00,45.9,43.1,30.07,North,10,3.9,5.8,90,0.00,,,0.09,0.0,WeatherDisplay:10.37,2013-01-06 11:21:00,
2013-01-06 03:26:00,46.0,43.2,30.07,ENE,74,3.5,6.0,90,0.00,,,0.09,0.0,WeatherDisplay:10.37,2013-01-06 11:26:00,
2013-01-06 03:31:00,46.1,43.3,30.07,ENE,75,3.9,9.2,90,0.00,,,0.09,0.0,WeatherDisplay:10.37,2013-01-06 11:31:00,
2013-01-06 03:36:00,46.2,43.4,30.07,East,98,0.4,2.0,90,0.00,,,0.09,0.0,WeatherDisplay:10.37,2013-01-06 11:36:00,
2013-01-06 03:41:00,46.3,43.2,30.07,East,84,1.6,4.0,89,0.00,,,0.09,0.0,WeatherDisplay:10.37,2013-01-06 11:41:00,
2013-01-06 03:46:00,46.3,43.2,30.07,ENE,57,2.8,3.5,89,0.00,,,0.09,0.0,WeatherDisplay:10.37,2013-01-06 11:46:00,
2013-01-06 03:51:00,46.3,43.2,30.07,ENE,57,2.6,5.0,89,0.00,,,0.09,0.0,WeatherDisplay:10.37,2013-01-06 11:51:00,
2013-01-06 03:56:00,46.3,43.2,30.07,ENE,65,1.3,3.5,89,0.00,,,0.09,0.0,WeatherDisplay:10.37,2013-01-06 11:56:00,
2013-01-06 04:01:00,46.3,43.2,30.08,North,10,0.0,3.5,89,0.00,,,0.09,0.0,WeatherDisplay:10.37,2013-01-06 12:01:00,
2013-01-06 04:06:00,46.4,43.3,30.08,ENE,76,1.4,3.5,89,0.00,,,0.09,0.0,WeatherDisplay:10.37,2013-01-06 12:06:00,
2013-01-06 04:11:00,46.4,43.3,30.08,NE,50,3.0,5.8,89,0.00,,,0.09,0.0,WeatherDisplay:10.37,2013-01-06 12:11:00,
2013-01-06 04:16:00,46.5,43.4,30.08,NE,37,0.5,3.5,89,0.00,,,0.09,0.0,WeatherDisplay:10.37,2013-01-06 12:16:00,
2013-01-06 04:21:00,46.6,43.5,30.08,NW,316,0.7,2.3,89,0.00,,,0.09,0.0,WeatherDisplay:10.37,2013-01-06 12:21:00,
2013-01-06 04:26:00,46.6,43.5,30.08,North,351,1.3,4.6,89,0.00,,,0.09,0.0,WeatherDisplay:10.37,2013-01-06 12:26:00,
2013-01-06 04:31:00,46.5,43.4,30.08,NNW,348,0.0,0.0,89,0.00,,,0.09,0.0,WeatherDisplay:10.37,2013-01-06 12:31:00,
2013-01-06 04:36:00,46.4,43.3,30.08,NNE,25,0.7,3.5,89,0.00,,,0.09,0.0,WeatherDisplay:10.37,2013-01-06 12:36:00,
2013-01-06 04:41:00,46.4,43.6,30.09,NNE,29,0.2,3.5,90,0.00,,,0.09,0.0,WeatherDisplay:10.37,2013-01-06 12:41:00,
2013-01-06 04:46:00,46.4,43.6,30.09,NE,40,4.6,9.2,90,0.00,,,0.09,0.0,WeatherDisplay:10.37,2013-01-06 12:46:00,
2013-01-06 04:51:00,46.4,43.3,30.08,NNE,29,0.7,3.5,89,0.00,,,0.09,0.0,WeatherDisplay:10.37,2013-01-06 12:51:00,
2013-01-06 04:56:00,46.5,43.4,30.08,North,10,3.3,3.5,89,0.00,,,0.09,0.0,WeatherDisplay:10.37,2013-01-06 12:56:00,
2013-01-06 05:01:00,46.6,43.5,30.08,ENE,59,0.2,2.3,89,0.00,,,0.09,0.0,WeatherDisplay:10.37,2013-01-06 13:01:00,
2013-01-06 05:06:00,46.7,43.6,30.08,NNE,25,2.0,6.0,89,0.00,,,0.09,0.0,WeatherDisplay:10.37,2013-01-06 13:06:00,
2013-01-06 05:11:00,46.8,43.4,30.08,NE,48,0.4,3.5,88,0.00,,,0.09,0.0,WeatherDisplay:10.37,2013-01-06 13:11:00,
2013-01-06 05:16:00,46.9,43.5,30.08,NNW,330,2.6,6.0,88,0.00,,,0.09,0.0,WeatherDisplay:10.37,2013-01-06 13:16:00,
2013-01-06 05:21:00,47.0,43.6,30.08,NNE,29,1.1,2.3,88,0.00,,,0.09,0.0,WeatherDisplay:10.37,2013-01-06 13:21:00,
2013-01-06 05:26:00,47.1,43.7,30.09,North,356,3.0,5.0,88,0.00,,,0.09,0.0,WeatherDisplay:10.37,2013-01-06 13:26:00,
2013-01-06 05:31:00,47.1,43.7,30.09,North,10,3.9,5.8,88,0.00,,,0.09,0.0,WeatherDisplay:10.37,2013-01-06 13:31:00,
2013-01-06 05:36:00,47.2,43.8,30.10,NNE,23,1.0,5.8,88,0.00,,,0.09,0.0,WeatherDisplay:10.37,2013-01-06 13:36:00,
2013-01-06 05:41:00,47.3,43.9,30.10,NNE,19,3.8,5.8,88,0.00,,,0.09,0.0,WeatherDisplay:10.37,2013-01-06 13:41:00,
2013-01-06 05:46:00,47.3,43.9,30.10,NNW,342,2.2,9.2,88,0.00,,,0.09,0.0,WeatherDisplay:10.37,2013-01-06 13:46:00,
2013-01-06 05:51:00,47.4,44.0,30.10,NNE,29,0.3,9.2,88,0.00,,,0.09,0.0,WeatherDisplay:10.37,2013-01-06 13:51:00,
2013-01-06 05:57:00,47.4,44.0,30.10,NE,36,1.0,2.3,88,0.00,,,0.09,0.0,WeatherDisplay:10.37,2013-01-06 13:57:00,
2013-01-06 06:02:00,47.3,43.9,30.10,NE,34,0.2,1.0,88,0.00,,,0.09,0.0,WeatherDisplay:10.37,2013-01-06 14:02:00,
2013-01-06 06:07:00,47.2,44.1,30.11,ENE,73,0.7,2.3,89,0.00,,,0.09,0.0,WeatherDisplay:10.37,2013-01-06 14:07:00,
2013-01-06 06:12:00,47.1,44.0,30.11,NNW,333,1.5,3.0,89,0.01,RA,,0.10,0.0,WeatherDisplay:10.37,2013-01-06 14:12:00,
2013-01-06 06:17:00,47.0,43.9,30.11,NNE,32,0.0,0.0,89,0.01,RA,,0.10,0.0,WeatherDisplay:10.37,2013-01-06 14:17:00,
2013-01-06 06:22:00,46.9,44.1,30.11,NNE,32,0.0,0.0,90,0.01,,,0.10,0.0,WeatherDisplay:10.37,2013-01-06 14:22:00,
2013-01-06 06:27:00,47.0,44.5,30.11,NNW,337,0.5,5.8,91,0.01,,,0.10,0.0,WeatherDisplay:10.37,2013-01-06 14:27:00,
2013-01-06 06:32:00,46.8,44.3,30.12,NNW,329,1.9,5.0,91,0.01,,,0.10,0.0,WeatherDisplay:10.37,2013-01-06 14:32:00,
2013-01-06 06:37:00,46.7,44.2,30.12,North,5,0.1,2.3,91,0.01,,,0.11,0.0,WeatherDisplay:10.37,2013-01-06 14:37:00,
2013-01-06 06:42:00,46.7,44.2,30.12,North,5,0.0,0.0,91,0.02,RA,,0.11,0.0,WeatherDisplay:10.37,2013-01-06 14:42:00,
2013-01-06 06:47:00,46.6,44.1,30.12,North,5,0.0,0.0,91,0.02,RA,,0.11,0.0,WeatherDisplay:10.37,2013-01-06 14:47:00,
2013-01-06 06:52:00,46.6,44.1,30.12,North,5,0.0,0.0,91,0.02,,,0.11,0.0,WeatherDisplay:10.37,2013-01-06 14:52:00,
2013-01-06 06:57:00,46.6,44.1,30.11,North,5,0.0,0.0,91,0.02,,,0.11,0.0,WeatherDisplay:10.37,2013-01-06 14:57:00,
2013-01-06 07:02:00,46.6,44.1,30.13,North,5,0.0,0.0,91,0.02,OVC,,0.11,0.0,WeatherDisplay:10.37,2013-01-06 15:02:00,
2013-01-06 07:07:00,46.6,44.1,30.13,North,5,0.0,0.0,91,0.02,OVC,,0.11,0.0,WeatherDisplay:10.37,2013-01-06 15:07:00,
2013-01-06 07:12:00,46.6,44.1,30.13,North,5,0.0,0.0,91,0.01,OVC,,0.11,0.0,WeatherDisplay:10.37,2013-01-06 15:12:00,
2013-01-06 07:17:00,46.6,44.1,30.11,North,5,0.0,0.0,91,0.01,OVC,,0.11,0.0,WeatherDisplay:10.37,2013-01-06 15:17:00,
2013-01-06 07:22:00,46.5,44.0,30.10,North,5,0.0,0.0,91,0.01,OVC,,0.11,0.0,WeatherDisplay:10.37,2013-01-06 15:22:00,
2013-01-06 07:27:00,46.5,44.0,30.11,North,5,0.0,0.0,91,0.01,OVC,,0.11,0.0,WeatherDisplay:10.37,2013-01-06 15:27:00,
2013-01-06 07:32:00,46.5,44.0,30.11,North,5,0.0,0.0,91,0.01,OVC,,0.11,0.0,WeatherDisplay:10.37,2013-01-06 15:32:00,
2013-01-06 07:37:00,46.4,43.9,30.11,North,5,0.0,0.0,91,0.00,OVC,,0.11,7.0,WeatherDisplay:10.37,2013-01-06 15:37:00,
2013-01-06 07:42:00,46.4,43.9,30.11,North,5,0.0,0.0,91,0.00,OVC,,0.11,7.0,WeatherDisplay:10.37,2013-01-06 15:42:00,
2013-01-06 07:47:00,46.4,43.9,30.12,North,10,0.0,0.0,91,0.00,OVC,,0.11,7.0,WeatherDisplay:10.37,2013-01-06 15:47:00,
2013-01-06 07:52:00,46.5,44.0,30.12,North,5,0.2,3.5,91,0.00,OVC,,0.11,12.0,WeatherDisplay:10.37,2013-01-06 15:52:00,
2013-01-06 07:57:00,46.6,44.1,30.12,North,10,0.0,0.0,91,0.00,OVC,,0.11,12.0,WeatherDisplay:10.37,2013-01-06 15:57:00,
2013-01-06 08:02:00,46.7,44.2,30.12,North,10,0.6,2.3,91,0.00,OVC,,0.11,18.0,WeatherDisplay:10.37,2013-01-06 16:02:00,
2013-01-06 08:07:00,46.7,44.2,30.13,North,357,0.0,0.0,91,0.00,OVC,,0.11,14.0,WeatherDisplay:10.37,2013-01-06 16:07:00,
2013-01-06 08:12:00,46.7,44.2,30.13,North,357,0.0,0.0,91,0.00,OVC,,0.11,23.0,WeatherDisplay:10.37,2013-01-06 16:12:00,
2013-01-06 08:17:00,46.8,44.3,30.13,WNW,298,2.1,3.5,91,0.00,CLR,,0.11,16.0,WeatherDisplay:10.37,2013-01-06 16:17:00,
2013-01-06 08:22:00,46.8,44.3,30.13,NW,306,0.0,0.0,91,0.00,CLR,,0.11,21.0,WeatherDisplay:10.37,2013-01-06 16:22:00,
2013-01-06 08:27:00,46.8,44.3,30.13,NW,304,0.0,0.0,91,0.00,CLR,,0.11,33.0,WeatherDisplay:10.37,2013-01-06 16:27:00,
2013-01-06 08:32:00,46.8,44.3,30.14,NW,304,0.0,0.0,91,0.00,CLR,,0.11,39.0,WeatherDisplay:10.37,2013-01-06 16:32:00,
2013-01-06 08:37:00,46.9,44.4,30.14,NW,309,0.5,3.0,91,0.00,CLR,,0.11,30.0,WeatherDisplay:10.37,2013-01-06 16:37:00,
2013-01-06 08:42:00,47.0,44.5,30.14,West,264,1.7,3.5,91,0.00,FEW,,0.11,49.0,WeatherDisplay:10.37,2013-01-06 16:42:00,
2013-01-06 08:47:00,47.0,44.5,30.15,NNW,327,0.0,0.0,91,0.00,FEW,,0.11,47.0,WeatherDisplay:10.37,2013-01-06 16:47:00,
2013-01-06 08:52:00,47.1,44.3,30.15,NNW,331,0.0,0.0,90,0.00,FEW,,0.11,39.0,WeatherDisplay:10.37,2013-01-06 16:52:00,
2013-01-06 08:57:00,47.1,44.3,30.16,NNW,335,0.0,0.0,90,0.00,SCT,,0.11,26.0,WeatherDisplay:10.37,2013-01-06 16:57:00,
2013-01-06 09:02:00,47.1,44.3,30.16,NNW,335,0.0,0.0,90,0.00,BKN,,0.11,23.0,WeatherDisplay:10.37,2013-01-06 17:02:00,
2013-01-06 09:07:00,47.1,44.3,30.16,NNW,346,0.2,3.0,90,0.00,BKN,,0.11,21.0,WeatherDisplay:10.37,2013-01-06 17:07:00,
2013-01-06 09:12:00,47.1,44.0,30.16,North,355,1.7,3.5,89,0.00,BKN,,0.11,19.0,WeatherDisplay:10.37,2013-01-06 17:12:00,
2013-01-06 09:17:00,47.2,44.1,30.16,North,10,0.0,0.0,89,0.00,BKN,,0.11,18.0,WeatherDisplay:10.37,2013-01-06 17:17:00,
2013-01-06 09:22:00,47.2,43.8,30.16,North,10,0.1,0.0,88,0.00,BKN,,0.11,26.0,WeatherDisplay:10.37,2013-01-06 17:22:00,
2013-01-06 09:27:00,47.3,43.9,30.16,NNE,19,0.0,0.0,88,0.00,BKN,,0.11,40.0,WeatherDisplay:10.37,2013-01-06 17:27:00,
2013-01-06 09:32:00,47.4,43.7,30.16,NE,46,0.1,2.3,87,0.00,BKN,,0.11,63.0,WeatherDisplay:10.37,2013-01-06 17:32:00,
2013-01-06 09:37:00,47.4,43.4,30.17,NE,46,0.0,0.0,86,0.00,BKN,,0.11,63.0,WeatherDisplay:10.37,2013-01-06 17:37:00,
2013-01-06 09:42:00,47.6,43.6,30.17,NE,48,0.0,0.0,86,0.00,BKN,,0.11,79.0,WeatherDisplay:10.37,2013-01-06 17:42:00,
2013-01-06 09:47:00,47.7,43.7,30.17,NE,48,0.0,0.0,86,0.00,BKN,,0.11,79.0,WeatherDisplay:10.37,2013-01-06 17:47:00,
2013-01-06 09:52:00,47.8,43.8,30.17,NE,47,0.0,0.0,86,0.00,BKN,,0.11,88.0,WeatherDisplay:10.37,2013-01-06 17:52:00,
2013-01-06 09:57:00,47.9,43.6,30.17,NE,48,0.0,0.0,85,0.00,BKN,,0.11,95.0,WeatherDisplay:10.37,2013-01-06 17:57:00,
2013-01-06 10:02:00,48.0,43.4,30.17,North,10,1.6,4.6,84,0.00,BKN,,0.11,111.0,WeatherDisplay:10.37,2013-01-06 18:02:00,
2013-01-06 10:07:00,48.1,43.5,30.17,NNE,33,0.0,0.0,84,0.00,BKN,,0.11,113.0,WeatherDisplay:10.37,2013-01-06 18:07:00,
2013-01-06 10:12:00,48.3,43.4,30.17,NNE,33,1.8,3.5,83,0.00,BKN,,0.11,134.0,WeatherDisplay:10.37,2013-01-06 18:12:00,
2013-01-06 10:17:00,48.5,43.6,30.17,NNE,33,0.0,0.0,83,0.00,SCT,,0.11,137.0,WeatherDisplay:10.37,2013-01-06 18:17:00,
2013-01-06 10:22:00,48.7,43.5,30.17,NE,42,0.0,0.0,82,0.00,SCT,,0.11,146.0,WeatherDisplay:10.37,2013-01-06 18:22:00,
2013-01-06 10:27:00,48.9,43.6,30.17,NE,42,0.0,0.0,82,0.00,SCT,,0.11,155.0,WeatherDisplay:10.37,2013-01-06 18:27:00,
2013-01-06 10:32:00,49.2,43.6,30.17,North,359,0.0,0.0,81,0.00,SCT,,0.11,169.0,WeatherDisplay:10.37,2013-01-06 18:32:00,
2013-01-06 10:37:00,49.3,43.4,30.17,NNW,346,0.0,0.0,80,0.00,SCT,,0.11,186.0,WeatherDisplay:10.37,2013-01-06 18:37:00,
2013-01-06 10:42:00,49.4,43.5,30.17,North,358,1.7,3.5,80,0.00,SCT,,0.11,163.0,WeatherDisplay:10.37,2013-01-06 18:42:00,
2013-01-06 10:47:00,49.6,43.7,30.17,North,358,0.7,2.0,80,0.00,SCT,,0.11,181.0,WeatherDisplay:10.37,2013-01-06 18:47:00,
2013-01-06 10:53:00,49.7,43.5,30.17,NNE,26,0.0,0.0,79,0.00,SCT,,0.11,202.0,WeatherDisplay:10.37,2013-01-06 18:53:00,
2013-01-06 10:58:00,49.8,43.5,30.16,North,10,0.9,2.0,79,0.00,SCT,,0.11,183.0,WeatherDisplay:10.37,2013-01-06 18:58:00,
2013-01-06 11:03:00,49.9,43.6,30.16,NE,46,0.0,0.0,79,0.00,SCT,,0.11,162.0,WeatherDisplay:10.37,2013-01-06 19:03:00,
2013-01-06 11:08:00,50.0,43.7,30.16,ENE,65,0.3,0.0,79,0.00,BKN,,0.11,155.0,WeatherDisplay:10.37,2013-01-06 19:08:00,
2013-01-06 11:13:00,49.9,43.3,30.16,North,352,0.4,3.5,78,0.00,BKN,,0.11,163.0,WeatherDisplay:10.37,2013-01-06 19:13:00,
2013-01-06 11:18:00,49.8,43.5,30.16,NE,45,0.0,0.0,79,0.00,BKN,,0.11,197.0,WeatherDisplay:10.37,2013-01-06 19:18:00,
2013-01-06 11:23:00,49.7,43.5,30.16,NE,46,0.0,0.0,79,0.00,SCT,,0.11,206.0,WeatherDisplay:10.37,2013-01-06 19:23:00,
2013-01-06 11:28:00,49.8,43.5,30.16,NE,46,0.0,0.0,79,0.00,SCT,,0.11,163.0,WeatherDisplay:10.37,2013-01-06 19:28:00,
2013-01-06 11:33:00,49.9,43.6,30.15,NE,48,1.0,3.5,79,0.00,BKN,,0.11,195.0,WeatherDisplay:10.37,2013-01-06 19:33:00,
2013-01-06 11:38:00,49.9,43.6,30.15,NE,56,0.0,0.0,79,0.00,BKN,,0.11,214.0,WeatherDisplay:10.37,2013-01-06 19:38:00,
2013-01-06 11:48:00,49.7,43.5,30.15,ENE,59,0.0,3.0,79,0.00,SCT,,0.11,237.0,WeatherDisplay:10.37,2013-01-06 19:48:00,
2013-01-06 11:53:00,49.8,43.9,30.14,ENE,63,1.5,3.0,80,0.00,SCT,,0.11,255.0,WeatherDisplay:10.37,2013-01-06 19:53:00,
2013-01-06 11:58:00,49.9,43.6,30.15,NE,48,0.0,0.0,79,0.00,SCT,,0.11,253.0,WeatherDisplay:10.37,2013-01-06 19:58:00,
2013-01-06 12:03:00,49.9,44.0,30.14,ENE,74,2.3,3.5,80,0.00,SCT,,0.11,253.0,WeatherDisplay:10.37,2013-01-06 20:03:00,
2013-01-06 12:08:00,50.0,44.1,30.15,East,88,0.0,0.0,80,0.00,SCT,,0.11,267.0,WeatherDisplay:10.37,2013-01-06 20:08:00,
2013-01-06 12:11:00,50.1,44.2,30.15,East,88,0.0,0.0,80,0.00,SCT,,0.11,265.0,WeatherDisplay:10.37,2013-01-06 20:11:00,
2013-01-06 12:13:00,50.1,44.2,30.15,East,88,0.0,0.0,80,0.00,SCT,,0.11,267.0,WeatherDisplay:10.37,2013-01-06 20:13:00,
2013-01-06 12:18:00,50.3,44.0,30.14,North,355,1.9,3.5,79,0.00,SCT,,0.11,206.0,WeatherDisplay:10.37,2013-01-06 20:18:00,
2013-01-06 12:23:00,50.3,43.7,30.14,North,355,1.0,3.5,78,0.00,SCT,,0.11,250.0,WeatherDisplay:10.37,2013-01-06 20:23:00,
2013-01-06 12:28:00,50.3,44.0,30.14,North,356,0.5,1.1,79,0.00,SCT,,0.11,241.0,WeatherDisplay:10.37,2013-01-06 20:28:00,
2013-01-06 12:33:00,50.4,44.1,30.14,NNW,337,0.4,2.3,79,0.00,SCT,,0.11,225.0,WeatherDisplay:10.37,2013-01-06 20:33:00,
2013-01-06 12:38:00,50.5,44.2,30.14,NNE,32,1.7,3.5,79,0.00,SCT,,0.11,200.0,WeatherDisplay:10.37,2013-01-06 20:38:00,
2013-01-06 12:43:00,50.4,44.1,30.14,NE,36,0.0,0.0,79,0.00,BKN,,0.11,172.0,WeatherDisplay:10.37,2013-01-06 20:43:00,
2013-01-06 12:48:00,50.4,44.5,30.14,NE,40,1.1,3.5,80,0.00,BKN,,0.11,183.0,WeatherDisplay:10.37,2013-01-06 20:48:00,
2013-01-06 12:53:00,50.3,44.0,30.14,NE,40,0.5,2.0,79,0.00,BKN,,0.11,216.0,WeatherDisplay:10.37,2013-01-06 20:53:00,
2013-01-06 12:58:00,50.2,43.6,30.14,NNW,342,3.1,3.5,78,0.00,BKN,,0.11,230.0,WeatherDisplay:10.37,2013-01-06 20:58:00,
2013-01-06 13:01:00,50.2,43.9,30.14,NNE,29,0.6,3.5,79,0.00,BKN,,0.11,174.0,WeatherDisplay:10.37,2013-01-06 21:01:00,
2013-01-06 13:06:00,50.3,43.7,30.14,ENE,71,2.9,4.6,78,0.00,BKN,,0.11,171.0,WeatherDisplay:10.37,2013-01-06 21:06:00,
2013-01-06 13:11:00,50.3,43.4,30.14,North,355,2.9,9.2,77,0.00,BKN,,0.11,218.0,WeatherDisplay:10.37,2013-01-06 21:11:00,
2013-01-06 13:16:00,50.6,44.0,30.14,NE,49,0.0,0.0,78,0.00,SCT,,0.11,468.0,WeatherDisplay:10.37,2013-01-06 21:16:00,
2013-01-06 13:21:00,50.7,43.8,30.13,NE,50,0.0,0.0,77,0.00,FEW,,0.11,455.0,WeatherDisplay:10.37,2013-01-06 21:21:00,
2013-01-06 13:26:00,51.0,44.0,30.13,NE,50,0.0,0.0,77,0.00,CLR,,0.11,492.0,WeatherDisplay:10.37,2013-01-06 21:26:00,
2013-01-06 13:31:00,51.4,44.1,30.13,NE,49,0.0,1.0,76,0.00,CLR,,0.11,454.0,WeatherDisplay:10.37,2013-01-06 21:31:00,
2013-01-06 13:36:00,51.8,43.4,30.13,NE,36,3.5,4.6,73,0.00,CLR,,0.11,438.0,WeatherDisplay:10.37,2013-01-06 21:36:00,
2013-01-06 13:41:00,52.1,43.3,30.13,NNW,346,0.6,3.5,72,0.00,CLR,,0.11,214.0,WeatherDisplay:10.37,2013-01-06 21:41:00,
2013-01-06 13:46:00,52.1,43.3,30.13,NE,56,0.0,0.0,72,0.00,SCT,,0.11,174.0,WeatherDisplay:10.37,2013-01-06 21:46:00,
2013-01-06 13:51:00,51.9,42.8,30.13,NNW,331,3.0,3.5,71,0.00,BKN,,0.11,239.0,WeatherDisplay:10.37,2013-01-06 21:51:00,
2013-01-06 13:56:00,51.8,42.7,30.13,North,5,0.4,2.0,71,0.00,SCT,,0.11,243.0,WeatherDisplay:10.37,2013-01-06 21:56:00,
2013-01-06 14:01:00,51.8,42.7,30.14,NE,51,1.1,3.5,71,0.00,SCT,,0.11,199.0,WeatherDisplay:10.37,2013-01-06 22:01:00,
2013-01-06 14:06:00,51.9,42.4,30.13,ENE,72,1.1,3.5,70,0.00,BKN,,0.11,132.0,WeatherDisplay:10.37,2013-01-06 22:06:00,
2013-01-06 14:11:00,51.9,42.8,30.13,ENE,71,1.1,3.5,71,0.00,BKN,,0.11,113.0,WeatherDisplay:10.37,2013-01-06 22:11:00,
2013-01-06 14:16:00,51.8,43.1,30.13,ENE,65,4.3,5.0,72,0.00,BKN,,0.11,142.0,WeatherDisplay:10.37,2013-01-06 22:16:00,
2013-01-06 14:21:00,51.5,42.8,30.13,ENE,59,2.6,4.6,72,0.00,BKN,,0.11,149.0,WeatherDisplay:10.37,2013-01-06 22:21:00,
2013-01-06 14:26:00,51.4,43.0,30.13,NE,50,1.0,3.5,73,0.00,SCT,,0.11,367.0,WeatherDisplay:10.37,2013-01-06 22:26:00,
2013-01-06 14:32:00,51.5,43.1,30.14,NE,52,0.0,0.0,73,0.00,FEW,,0.11,385.0,WeatherDisplay:10.37,2013-01-06 22:32:00,
2013-01-06 14:37:00,51.8,43.1,30.13,ENE,59,1.8,3.5,72,0.00,CLR,,0.11,257.0,WeatherDisplay:10.37,2013-01-06 22:37:00,
2013-01-06 14:41:00,51.9,43.2,30.13,East,94,0.0,2.3,72,0.00,FEW,,0.11,227.0,WeatherDisplay:10.37,2013-01-06 22:41:00,
2013-01-06 14:47:00,52.0,43.3,30.14,East,94,0.8,3.5,72,0.00,SCT,,0.11,185.0,WeatherDisplay:10.37,2013-01-06 22:47:00,
2013-01-06 14:52:00,52.1,43.3,30.14,East,94,0.0,0.0,72,0.00,SCT,,0.11,153.0,WeatherDisplay:10.37,2013-01-06 22:52:00,
2013-01-06 14:57:00,52.1,43.3,30.14,East,94,0.0,0.0,72,0.00,BKN,,0.11,156.0,WeatherDisplay:10.37,2013-01-06 22:57:00,
2013-01-06 15:02:00,52.0,43.3,30.14,East,94,0.0,2.3,72,0.00,BKN,,0.11,172.0,WeatherDisplay:10.37,2013-01-06 23:02:00,
2013-01-06 15:07:00,51.8,43.1,30.14,East,94,1.0,2.3,72,0.00,BKN,,0.11,169.0,WeatherDisplay:10.37,2013-01-06 23:07:00,
2013-01-06 15:12:00,51.8,43.4,30.14,East,94,0.0,0.0,73,0.00,BKN,,0.11,148.0,WeatherDisplay:10.37,2013-01-06 23:12:00,
2013-01-06 15:17:00,51.8,43.4,30.14,East,94,0.0,0.0,73,0.00,BKN,,0.11,137.0,WeatherDisplay:10.37,2013-01-06 23:17:00,
2013-01-06 15:22:00,52.0,43.6,30.14,East,94,0.0,0.0,73,0.00,BKN,,0.11,137.0,WeatherDisplay:10.37,2013-01-06 23:22:00,
2013-01-06 15:27:00,52.0,43.3,30.14,East,94,1.4,3.0,72,0.00,BKN,,0.11,116.0,WeatherDisplay:10.37,2013-01-06 23:27:00,
2013-01-06 15:32:00,52.0,43.6,30.14,East,94,0.0,0.0,73,0.00,BKN,,0.11,114.0,WeatherDisplay:10.37,2013-01-06 23:32:00,
2013-01-06 15:37:00,52.1,43.7,30.14,East,94,0.0,0.0,73,0.00,BKN,,0.11,113.0,WeatherDisplay:10.37,2013-01-06 23:37:00,
2013-01-06 15:42:00,52.2,43.4,30.14,East,94,1.5,2.3,72,0.00,BKN,,0.11,113.0,WeatherDisplay:10.37,2013-01-06 23:42:00,
2013-01-06 15:47:00,52.2,43.8,30.14,SW,234,1.6,3.5,73,0.00,BKN,,0.11,91.0,WeatherDisplay:10.37,2013-01-06 23:47:00,
2013-01-06 15:52:00,52.2,43.8,30.14,NNW,329,0.0,0.0,73,0.00,BKN,,0.11,79.0,WeatherDisplay:10.37,2013-01-06 23:52:00,
2013-01-06 15:57:00,52.2,43.4,30.14,NNW,346,0.0,0.0,72,0.00,BKN,,0.11,83.0,WeatherDisplay:10.37,2013-01-06 23:57:00,
2013-01-06 16:02:00,52.3,43.9,30.14,NNW,346,0.0,0.0,73,0.00,BKN,,0.11,97.0,WeatherDisplay:10.37,2013-01-07 00:02:00,
2013-01-06 16:07:00,52.2,43.8,30.14,NNW,346,0.0,0.0,73,0.00,BKN,,0.11,86.0,WeatherDisplay:10.37,2013-01-07 00:07:00,
2013-01-06 16:12:00,52.2,43.8,30.14,NNW,346,0.0,0.0,73,0.00,BKN,,0.11,60.0,WeatherDisplay:10.37,2013-01-07 00:12:00,
2013-01-06 16:17:00,52.3,43.9,30.15,NNW,345,0.0,0.0,73,0.00,BKN,,0.11,53.0,WeatherDisplay:10.37,2013-01-07 00:17:00,
2013-01-06 16:22:00,52.2,43.8,30.15,NNW,337,0.0,0.0,73,0.00,BKN,,0.11,49.0,WeatherDisplay:10.37,2013-01-07 00:22:00,
2013-01-06 16:27:00,52.2,43.8,30.15,NNW,335,0.0,0.0,73,0.00,BKN,,0.11,40.0,WeatherDisplay:10.37,2013-01-07 00:27:00,
2013-01-06 16:32:00,52.1,44.1,30.15,WNW,284,2.8,4.6,74,0.00,BKN,,0.11,33.0,WeatherDisplay:10.37,2013-01-07 00:32:00,
2013-01-06 16:37:00,51.9,43.9,30.15,NW,321,1.5,3.5,74,0.00,BKN,,0.11,32.0,WeatherDisplay:10.37,2013-01-07 00:37:00,
2013-01-06 16:42:00,51.7,44.0,30.15,NW,319,0.0,0.0,75,0.00,BKN,,0.11,26.0,WeatherDisplay:10.37,2013-01-07 00:42:00,
2013-01-06 16:47:00,51.6,43.9,30.15,NW,319,0.0,0.0,75,0.00,BKN,,0.11,21.0,WeatherDisplay:10.37,2013-01-07 00:47:00,
2013-01-06 16:52:00,51.4,44.1,30.15,WNW,300,0.0,0.0,76,0.00,BKN,,0.11,16.0,WeatherDisplay:10.37,2013-01-07 00:52:00,
2013-01-06 16:57:00,51.3,44.0,30.15,WNW,300,0.0,0.0,76,0.00,BKN,,0.11,12.0,WeatherDisplay:10.37,2013-01-07 00:57:00,
2013-01-06 17:02:00,51.2,43.9,30.15,WNW,300,0.0,0.0,76,0.00,OVC,,0.11,9.0,WeatherDisplay:10.37,2013-01-07 01:02:00,
2013-01-06 17:07:00,51.1,44.1,30.15,WNW,300,0.0,0.0,77,0.00,OVC,,0.11,5.0,WeatherDisplay:10.37,2013-01-07 01:07:00,
2013-01-06 17:12:00,51.1,44.8,30.14,WNW,300,0.0,0.0,79,0.00,OVC,,0.11,0.0,WeatherDisplay:10.37,2013-01-07 01:12:00,
2013-01-06 17:17:00,51.3,45.3,30.14,WNW,300,0.0,0.0,80,0.00,OVC,,0.11,0.0,WeatherDisplay:10.37,2013-01-07 01:17:00,
2013-01-06 17:22:00,51.4,45.1,30.14,WNW,300,0.0,0.0,79,0.00,OVC,,0.11,0.0,WeatherDisplay:10.37,2013-01-07 01:22:00,
2013-01-06 17:27:00,51.3,44.7,30.14,WNW,300,0.0,0.0,78,0.00,OVC,,0.11,0.0,WeatherDisplay:10.37,2013-01-07 01:27:00,
2013-01-06 17:32:00,51.1,44.5,30.14,WNW,299,0.0,0.0,78,0.00,OVC,,0.11,0.0,WeatherDisplay:10.37,2013-01-07 01:32:00,
2013-01-06 17:37:00,50.9,44.6,30.14,WNW,296,0.0,0.0,79,0.00,OVC,,0.11,0.0,WeatherDisplay:10.37,2013-01-07 01:37:00,
2013-01-06 17:42:00,50.8,44.9,30.14,WNW,294,1.4,3.5,80,0.00,OVC,,0.11,0.0,WeatherDisplay:10.37,2013-01-07 01:42:00,
2013-01-06 17:47:00,50.6,44.7,30.14,WNW,294,0.0,0.0,80,0.00,OVC,,0.11,0.0,WeatherDisplay:10.37,2013-01-07 01:47:00,
2013-01-06 17:52:00,50.5,44.6,30.14,West,270,2.2,3.5,80,0.00,OVC,,0.11,0.0,WeatherDisplay:10.37,2013-01-07 01:52:00,
2013-01-06 17:57:00,50.4,44.8,30.14,West,259,2.8,3.5,81,0.00,OVC,,0.11,0.0,WeatherDisplay:10.37,2013-01-07 01:57:00,
2013-01-06 18:02:00,50.3,45.0,30.14,WSW,256,3.3,5.8,82,0.00,OVC,,0.11,0.0,WeatherDisplay:10.37,2013-01-07 02:02:00,
2013-01-06 18:07:00,50.2,44.9,30.14,West,271,2.8,4.0,82,0.00,OVC,,0.11,0.0,WeatherDisplay:10.37,2013-01-07 02:07:00,
2013-01-06 18:12:00,50.1,44.8,30.14,West,270,1.6,3.5,82,0.00,OVC,,0.11,0.0,WeatherDisplay:10.37,2013-01-07 02:12:00,
2013-01-06 18:17:00,50.0,44.7,30.14,West,267,2.7,4.6,82,0.00,OVC,,0.11,0.0,WeatherDisplay:10.37,2013-01-07 02:17:00,
2013-01-06 18:22:00,49.9,44.9,30.14,West,262,1.5,4.6,83,0.00,OVC,,0.11,0.0,WeatherDisplay:10.37,2013-01-07 02:22:00,
2013-01-06 18:27:00,49.9,45.3,30.14,West,263,0.6,2.3,84,0.00,OVC,,0.11,0.0,WeatherDisplay:10.37,2013-01-07 02:27:00,
2013-01-06 18:32:00,50.0,45.4,30.14,West,273,1.4,3.5,84,0.00,OVC,,0.11,0.0,WeatherDisplay:10.37,2013-01-07 02:32:00,
2013-01-06 18:37:00,50.0,45.4,30.14,West,275,0.6,2.3,84,0.00,OVC,,0.11,0.0,WeatherDisplay:10.37,2013-01-07 02:37:00,
2013-01-06 18:42:00,50.0,45.4,30.14,West,275,0.0,0.0,84,0.00,OVC,,0.11,0.0,WeatherDisplay:10.37,2013-01-07 02:42:00,
2013-01-06 18:47:00,50.1,45.8,30.14,West,275,0.0,2.3,85,0.00,OVC,,0.11,0.0,WeatherDisplay:10.37,2013-01-07 02:47:00,
2013-01-06 18:52:00,50.1,45.8,30.14,WNW,283,0.2,2.3,85,0.00,OVC,,0.11,0.0,WeatherDisplay:10.37,2013-01-07 02:52:00,
2013-01-06 18:58:00,50.0,45.7,30.14,WNW,283,0.0,0.0,85,0.00,OVC,,0.11,0.0,WeatherDisplay:10.37,2013-01-07 02:58:00,
2013-01-06 19:03:00,50.0,46.0,30.15,WNW,283,0.0,0.0,86,0.00,OVC,,0.11,0.0,WeatherDisplay:10.37,2013-01-07 03:03:00,
2013-01-06 19:08:00,50.0,45.7,30.15,WNW,285,0.0,0.0,85,0.00,OVC,,0.11,0.0,WeatherDisplay:10.37,2013-01-07 03:08:00,
2013-01-06 19:13:00,49.9,45.6,30.15,WNW,285,0.0,0.0,85,0.00,OVC,,0.11,0.0,WeatherDisplay:10.37,2013-01-07 03:13:00,
2013-01-06 19:18:00,49.9,45.6,30.15,WNW,285,0.0,0.0,85,0.00,OVC,,0.11,0.0,WeatherDisplay:10.37,2013-01-07 03:18:00,
2013-01-06 19:23:00,49.8,45.5,30.15,WNW,286,0.0,0.0,85,0.00,OVC,,0.11,0.0,WeatherDisplay:10.37,2013-01-07 03:23:00,
2013-01-06 19:28:00,49.8,45.8,30.15,WNW,286,0.0,0.0,86,0.00,OVC,,0.11,0.0,WeatherDisplay:10.37,2013-01-07 03:28:00,
2013-01-06 19:33:00,49.8,45.8,30.15,WNW,286,0.0,0.0,86,0.00,OVC,,0.11,0.0,WeatherDisplay:10.37,2013-01-07 03:33:00,
2013-01-06 19:38:00,49.7,45.4,30.15,WNW,285,0.0,0.0,85,0.00,OVC,,0.11,0.0,WeatherDisplay:10.37,2013-01-07 03:38:00,
2013-01-06 19:43:00,49.6,45.3,30.15,WNW,291,0.0,0.0,85,0.00,OVC,,0.11,0.0,WeatherDisplay:10.37,2013-01-07 03:43:00,
2013-01-06 19:48:00,49.5,45.2,30.15,WNW,291,0.0,0.0,85,0.00,OVC,,0.11,0.0,WeatherDisplay:10.37,2013-01-07 03:48:00,
2013-01-06 19:53:00,49.5,45.2,30.16,WNW,291,0.0,0.0,85,0.00,OVC,,0.11,0.0,WeatherDisplay:10.37,2013-01-07 03:53:00,
2013-01-06 19:58:00,49.5,45.2,30.16,WNW,296,0.0,0.0,85,0.00,OVC,,0.11,0.0,WeatherDisplay:10.37,2013-01-07 03:58:00,
2013-01-06 20:03:00,49.5,45.2,30.16,NW,310,0.0,0.0,85,0.00,OVC,,0.11,0.0,WeatherDisplay:10.37,2013-01-07 04:03:00,
2013-01-06 20:08:00,49.5,45.2,30.16,NW,310,0.0,0.0,85,0.00,OVC,,0.11,0.0,WeatherDisplay:10.37,2013-01-07 04:08:00,
2013-01-06 20:13:00,49.5,45.2,30.16,NW,310,0.0,0.0,85,0.00,OVC,,0.11,0.0,WeatherDisplay:10.37,2013-01-07 04:13:00,
2013-01-06 20:18:00,49.5,45.2,30.16,NW,310,0.0,0.0,85,0.00,OVC,,0.11,0.0,WeatherDisplay:10.37,2013-01-07 04:18:00,
2013-01-06 20:23:00,49.5,45.5,30.16,North,5,0.0,0.0,86,0.00,OVC,,0.11,0.0,WeatherDisplay:10.37,2013-01-07 04:23:00,
2013-01-06 20:28:00,49.4,45.4,30.16,North,5,0.0,0.0,86,0.00,OVC,,0.11,0.0,WeatherDisplay:10.37,2013-01-07 04:28:00,
2013-01-06 20:33:00,49.4,45.4,30.17,North,5,0.0,0.0,86,0.00,OVC,,0.11,0.0,WeatherDisplay:10.37,2013-01-07 04:33:00,
2013-01-06 20:38:00,49.3,45.3,30.17,North,5,0.0,0.0,86,0.00,OVC,,0.11,0.0,WeatherDisplay:10.37,2013-01-07 04:38:00,
2013-01-06 20:43:00,49.3,45.6,30.17,North,5,0.0,0.0,87,0.00,OVC,,0.11,0.0,WeatherDisplay:10.37,2013-01-07 04:43:00,
2013-01-06 20:48:00,49.1,45.1,30.17,North,5,0.0,0.0,86,0.00,OVC,,0.11,0.0,WeatherDisplay:10.37,2013-01-07 04:48:00,
2013-01-06 20:53:00,48.9,44.9,30.17,North,5,0.0,0.0,86,0.00,OVC,,0.11,0.0,WeatherDisplay:10.37,2013-01-07 04:53:00,
2013-01-06 20:58:00,48.7,44.7,30.17,NE,39,0.0,0.0,86,0.00,OVC,,0.11,0.0,WeatherDisplay:10.37,2013-01-07 04:58:00,
2013-01-06 21:00:00,48.6,44.9,30.16,NE,39,0.0,0.0,87,0.00,OVC,,0.11,0.0,WeatherDisplay:10.37,2013-01-07 05:00:00,
2013-01-06 21:01:00,48.6,44.9,30.16,NE,39,0.0,0.0,87,0.00,OVC,,0.11,0.0,WeatherDisplay:10.37,2013-01-07 05:01:00,
2013-01-06 21:06:00,48.5,44.8,30.17,NE,39,0.0,0.0,87,0.00,OVC,,0.11,0.0,WeatherDisplay:10.37,2013-01-07 05:06:00,
2013-01-06 21:11:00,48.4,45.0,30.17,NE,39,0.0,0.0,88,0.00,OVC,,0.11,0.0,WeatherDisplay:10.37,2013-01-07 05:11:00,
2013-01-06 21:16:00,48.3,44.9,30.17,NE,39,0.0,0.0,88,0.00,OVC,,0.11,0.0,WeatherDisplay:10.37,2013-01-07 05:16:00,
2013-01-06 21:21:00,48.1,44.7,30.17,NE,39,0.0,0.0,88,0.00,OVC,,0.11,0.0,WeatherDisplay:10.37,2013-01-07 05:21:00,
2013-01-06 21:26:00,47.9,44.5,30.17,NE,39,0.0,0.0,88,0.00,OVC,,0.11,0.0,WeatherDisplay:10.37,2013-01-07 05:26:00,
2013-01-06 21:31:00,47.9,44.5,30.17,NE,39,0.0,0.0,88,0.00,OVC,,0.11,0.0,WeatherDisplay:10.37,2013-01-07 05:31:00,
2013-01-06 21:36:00,47.8,44.7,30.17,ENE,73,0.0,0.0,89,0.00,OVC,,0.11,0.0,WeatherDisplay:10.37,2013-01-07 05:36:00,
2013-01-06 21:41:00,47.6,44.5,30.16,ENE,73,0.0,0.0,89,0.00,OVC,,0.11,0.0,WeatherDisplay:10.37,2013-01-07 05:41:00,
2013-01-06 21:46:00,47.6,44.5,30.16,ENE,73,0.0,0.0,89,0.00,OVC,,0.11,0.0,WeatherDisplay:10.37,2013-01-07 05:46:00,
2013-01-06 21:51:00,47.4,44.3,30.16,ENE,73,0.0,0.0,89,0.00,OVC,,0.11,0.0,WeatherDisplay:10.37,2013-01-07 05:51:00,
2013-01-06 21:56:00,47.3,44.2,30.16,ENE,73,0.0,0.0,89,0.00,OVC,,0.11,0.0,WeatherDisplay:10.37,2013-01-07 05:56:00,
2013-01-06 22:01:00,47.2,44.4,30.17,ENE,73,0.0,0.0,90,0.00,OVC,,0.11,0.0,WeatherDisplay:10.37,2013-01-07 06:01:00,
2013-01-06 22:06:00,47.1,44.3,30.17,ENE,73,0.0,0.0,90,0.00,OVC,,0.11,0.0,WeatherDisplay:10.37,2013-01-07 06:06:00,
2013-01-06 22:11:00,47.0,44.2,30.17,ENE,73,0.0,0.0,90,0.00,OVC,,0.11,0.0,WeatherDisplay:10.37,2013-01-07 06:11:00,
2013-01-06 22:16:00,46.9,44.1,30.16,ENE,73,0.0,0.0,90,0.00,OVC,,0.11,0.0,WeatherDisplay:10.37,2013-01-07 06:16:00,
2013-01-06 22:21:00,46.8,44.0,30.16,ENE,73,0.0,0.0,90,0.00,OVC,,0.11,0.0,WeatherDisplay:10.37,2013-01-07 06:21:00,
2013-01-06 22:26:00,46.8,44.0,30.16,ENE,73,0.0,0.0,90,0.00,OVC,,0.11,0.0,WeatherDisplay:10.37,2013-01-07 06:26:00,
2013-01-06 22:31:00,46.8,44.0,30.16,ENE,73,0.0,0.0,90,0.00,OVC,,0.11,0.0,WeatherDisplay:10.37,2013-01-07 06:31:00,
2013-01-06 22:36:00,46.7,44.2,30.16,ENE,73,0.0,0.0,91,0.00,OVC,,0.11,0.0,WeatherDisplay:10.37,2013-01-07 06:36:00,
2013-01-06 22:41:00,46.6,44.1,30.16,ENE,73,0.0,0.0,91,0.00,OVC,,0.11,0.0,WeatherDisplay:10.37,2013-01-07 06:41:00,
2013-01-06 22:46:00,46.4,43.9,30.16,ENE,73,0.0,0.0,91,0.00,OVC,,0.11,0.0,WeatherDisplay:10.37,2013-01-07 06:46:00,
2013-01-06 22:51:00,46.4,43.9,30.16,ENE,73,0.0,0.0,91,0.00,OVC,,0.11,0.0,WeatherDisplay:10.37,2013-01-07 06:51:00,
2013-01-06 22:56:00,46.4,43.9,30.16,ENE,73,0.0,0.0,91,0.00,OVC,,0.11,0.0,WeatherDisplay:10.37,2013-01-07 06:56:00,
2013-01-06 23:01:00,46.3,43.8,30.17,ENE,73,0.0,0.0,91,0.00,OVC,,0.11,0.0,WeatherDisplay:10.37,2013-01-07 07:01:00,
2013-01-06 23:06:00,46.1,43.6,30.17,ENE,73,0.0,0.0,91,0.00,OVC,,0.11,0.0,WeatherDisplay:10.37,2013-01-07 07:06:00,
2013-01-06 23:11:00,46.0,43.5,30.17,ENE,73,0.0,0.0,91,0.00,OVC,,0.11,0.0,WeatherDisplay:10.37,2013-01-07 07:11:00,
2013-01-06 23:16:00,45.9,43.4,30.17,ENE,73,0.0,0.0,91,0.00,OVC,,0.11,0.0,WeatherDisplay:10.37,2013-01-07 07:16:00,
2013-01-06 23:21:00,45.8,43.3,30.17,ENE,73,0.0,0.0,91,0.00,OVC,,0.11,0.0,WeatherDisplay:10.37,2013-01-07 07:21:00,
2013-01-06 23:26:00,45.6,43.1,30.17,ENE,73,0.0,0.0,91,0.00,OVC,,0.11,0.0,WeatherDisplay:10.37,2013-01-07 07:26:00,
2013-01-06 23:31:00,45.5,43.3,30.17,ENE,73,0.0,0.0,92,0.00,OVC,,0.11,0.0,WeatherDisplay:10.37,2013-01-07 07:31:00,
2013-01-06 23:36:00,45.4,43.2,30.17,ENE,73,0.0,0.0,92,0.00,OVC,,0.11,0.0,WeatherDisplay:10.37,2013-01-07 07:36:00,
2013-01-06 23:41:00,45.3,43.1,30.17,ENE,73,0.0,0.0,92,0.00,OVC,,0.11,0.0,WeatherDisplay:10.37,2013-01-07 07:41:00,
2013-01-06 23:46:00,45.3,43.1,30.17,ENE,73,0.0,0.0,92,0.00,OVC,,0.11,0.0,WeatherDisplay:10.37,2013-01-07 07:46:00,
2013-01-06 23:51:00,45.2,43.0,30.17,ENE,73,0.0,0.0,92,0.00,OVC,,0.11,0.0,WeatherDisplay:10.37,2013-01-07 07:51:00,
2013-01-06 23:56:00,45.2,43.0,30.17,ENE,73,0.0,0.0,92,0.00,OVC,,0.11,0.0,WeatherDisplay:10.37,2013-01-07 07:56:00,